sat.trackr.live / text

‹ back to catalog

STARLINK-1582

NORAD 46043 · 2020-055S

PAYLOAD ACTIVE UNKNOWN

§ Identity

Operator
Country
US
Launch date
2020-08-07
Launch site
AFETR
Launch vehicle
Mass (kg)
RCS (m²)

Purposes: comms

External: N2YO · Heavens-Above · Gunter

§ Orbital elements

Epoch: 2026-09-19T14:13:28.799616Z

Period
94.01 min
Inclination
53.1603°
Eccentricity
0.0001237
Mean motion
15.31709331 rev/d
Perigee alt
469.9 km
Apogee alt
471.6 km
Semi-major
6,848.8 km
B*
4.5506e-5
RAAN
304.3299°
Arg perigee
74.8893°
Mean anomaly
285.2246°
Rev number
33,859

§ Raw data

STARLINK-15821 46043U 20055S   26262.59269444  .00001048  00000+0  45506-4 0  99962 46043  53.1603 304.3299 0001237  74.8893 285.2246 15.31709331338599

JSON: /api/v1/satellites/46043 · /tle

For live sub-satellite position, see the globe view (requires WebGL).

§ Visibility from observer

Set your observer location to see the next 7 days of passes ≥ 10°. The values pass through the URL so the page stays shareable.

No JS? Fill the form by hand. The geolocation button needs JavaScript.